CZ-6A DEB, 54550

Orbit data source: Space-Track

CZ-6A DEB, 54550 is space debris in SSO originally from a launch on Fri, 11 Nov 2022 UTC launched from the Taiyaun Space Center, China (TSC). Debris objects in space refer to the collection of defunct objects orbiting the Earth. Examples of debris include non-operational satellites, rocket bodies, and fragments generated from explosions, collisions, or faulty payload assembly.

Loading next visibility...
Identifier
54550, 2022-151LA
Orbit
SSO
Country
Flag of CNCN / PRC
Related business
Manufacturer
SAST
Mission
Spacecraft
Bus & Motor
Unknown
Mass
Unknown
Launch date (UTC)
2022-11-11 (3 years ago)
Launch vehicle
Unknown
Launch site
Taiyaun Space Center, China (TSC)
Object type
Payload
Rocket body
Debris
Shape & HBR
Unknown shape, 0.2 m
Radar Cross Section
Small (<0.1 m²)

Expand to show TLE details & history
Last TLE update: 10 hours ago

TLE from 10 hours ago
0 CZ-6A DEB
1 54550U 22151LA  25355.07067811  .00000917  00000-0  31672-3 0  9999
2 54550  98.6842  26.7846 0066701 119.9330 240.8502 14.36909910162447
Epoch: 2025-12-21T01:41Z
TLE epoch observation values (Epoch: 2025-12-21T01:41:46.588Z)
Latitude
-0.00002°
Longitude
-88.54791°
Altitude
795.131 km
Speed
7.444 km/s
True Right ascension
01h 47m 08s
True Declination
0° 00' 00"
Sunlit
Object was in daylight at epoch
Visualization orbit readout
Latitude
Unknown
Longitude
Unknown
Altitude
Unknown
Speed
Unknown
Apparent Right ascension
Unknown
Apparent Declination
Unknown
Sunlit
N/A
Visualization observer readout
Local Sidereal Time
10:40:57
Azimuth
Unknown
Elevation
Unknown
Doppler factor
Unknown
Orbital elements
Apogee altitude
813.512 km
Perigee altitude
718.21 km
Semi-major axis
7,143.998 km
Eccentricity
0.00667
Inclination
98.6842°
RAAN
26.7846°
Arg. of periapsis
119.933°
True anomaly
240.18538°
Mean anomaly
240.8502°
Eccentric anomaly
240.51752°
Mean motion
3.59444 °/min
Orbital period
100.15 mins
BSTAR
0.00031672
Loading maneuver chart data...
Computing Atmospheric mass density...
Loading historical data...
Loading historical data...
Loading historical data...
Loading historical data...
Loading historical data...
Loading historical data...
Loading historical data...

Documentation

Showing up to 5 results
|